Find Starlink 32635

NORAD ID: 62155 Int'l Des: 2024-224 Owner: SPXS Country: US Constellation: starlink operational
LEOCIRCULAR

Live Position

Loading 3D Globe...

About Starlink 32635

Description loading...

Upcoming Passes

Passes for default location (London). Set your location on the main map for personalized predictions.

Altitude History

Loading altitude history...

Two-Line Element Set

1 62155U 24224S 26121.72642692 .00037407 00000-0 13598-2 0 9992
2 62155 43.0024 226.1580 0001570 271.1788 88.8884 15.27632266 80344
Epoch: May 1, 2026 • Age: 29 hours

Current Status

Altitude 482.1 km
Velocity 7.63 km/s
Sub-Earth Point 10.33°N, 168.67°W
Launch Date Nov 30, 2024
Age 1.4 years
Type internet

Technical Details

Classification Payload
Mass 730.00 kg
Dry Mass 700.00 kg
Total Mass 730.00 kg
Length 0.30 m
Diameter 4.10 m
Span 29.00 m
Shape Box + pan
Manufacturer SPXS
Bus Type Starlink V2M
Phase Status In Orbit
Owner/State SPXS/US

Most Searched